RYR1988 EGCC-EKCH

Flight info

Callsign RYR1988
Flight time 1h 28m
Altitude 37000
Route DESIG L603 LAMIX UT29 LIBSO UL975 ERDOW DCT ROPAL DCT LESRA DCT TESPI
Aircraft B738/M-SDE2E3FGHIRWXY/LB1

Departure

Time 2026-05-06 19:49
Airport Manchester Airport (EGCC)

Arrival

Time 2026-05-06 21:17
Airport Copenhagen Kastrup Airport (EKCH)
Time Latitude Longitude Altitude Speed Heading
2026-05-06 19:29 53.36062 -2.26840 254 ft 0 kts 313°
2026-05-06 19:39 53.36060 -2.26838 254 ft 2 kts 313°
2026-05-06 19:40 53.36042 -2.26807 254 ft 4 kts 315°
2026-05-06 19:40 53.36027 -2.26781 254 ft 4 kts 295°
2026-05-06 19:40 53.36027 -2.26745 254 ft 4 kts 235°
2026-05-06 19:40 53.36043 -2.26713 254 ft 4 kts 230°
2026-05-06 19:41 53.36057 -2.26684 254 ft 2 kts 230°
2026-05-06 19:41 53.36072 -2.26649 254 ft 4 kts 244°
2026-05-06 19:41 53.36075 -2.26640 254 ft 0 kts 244°
2026-05-06 19:44 53.36074 -2.26641 254 ft 1 kts 244°
2026-05-06 19:44 53.36051 -2.26697 254 ft 12 kts 232°
2026-05-06 19:44 53.35963 -2.26832 254 ft 20 kts 185°
2026-05-06 19:45 53.35848 -2.26952 255 ft 22 kts 237°
2026-05-06 19:45 53.35805 -2.27158 254 ft 12 kts 292°
2026-05-06 19:45 53.35792 -2.27315 254 ft 18 kts 233°
2026-05-06 19:45 53.35707 -2.27487 252 ft 20 kts 231°
2026-05-06 19:46 53.35584 -2.27716 240 ft 31 kts 223°
2026-05-06 19:46 53.35424 -2.27972 240 ft 35 kts 224°
2026-05-06 19:46 53.35248 -2.28261 231 ft 36 kts 229°
2026-05-06 19:46 53.35094 -2.28584 228 ft 34 kts 232°
2026-05-06 19:47 53.34944 -2.28865 225 ft 32 kts 225°
2026-05-06 19:47 53.34761 -2.29067 218 ft 31 kts 174°
2026-05-06 19:47 53.34706 -2.28858 220 ft 18 kts 45°
2026-05-06 19:47 53.34762 -2.28761 224 ft 0 kts 51°
2026-05-06 19:48 53.34762 -2.28760 224 ft 2 kts 50°
2026-05-06 19:48 53.34805 -2.28672 228 ft 29 kts 51°
2026-05-06 19:48 53.35085 -2.28090 232 ft 98 kts 51°
2026-05-06 19:49 53.35636 -2.26952 264 ft 151 kts 51°
2026-05-06 19:49 53.36289 -2.25519 879 ft 150 kts 59°
2026-05-06 19:49 53.36950 -2.24053 1397 ft 166 kts 55°
2026-05-06 19:49 53.37660 -2.22465 1704 ft 173 kts 55°
2026-05-06 19:50 53.38434 -2.20863 2009 ft 179 kts 54°
2026-05-06 19:50 53.39217 -2.19258 2473 ft 178 kts 54°
2026-05-06 19:50 53.40009 -2.17621 2836 ft 182 kts 54°
2026-05-06 19:50 53.40808 -2.15958 3227 ft 187 kts 53°
2026-05-06 19:51 53.41650 -2.14192 3533 ft 208 kts 54°
2026-05-06 19:51 53.42611 -2.12166 3787 ft 236 kts 53°
2026-05-06 19:51 53.43688 -2.09895 4150 ft 258 kts 52°
2026-05-06 19:51 53.44823 -2.07494 4843 ft 267 kts 51°
2026-05-06 19:52 53.45983 -2.05029 5686 ft 268 kts 49°
2026-05-06 19:52 53.47140 -2.02565 6580 ft 271 kts 49°
2026-05-06 19:52 53.48317 -2.00059 7320 ft 275 kts 49°
2026-05-06 19:52 53.49521 -1.97530 8075 ft 279 kts 49°
2026-05-06 19:53 53.50747 -1.94971 8855 ft 283 kts 49°
2026-05-06 19:53 53.51973 -1.92349 9607 ft 289 kts 55°
2026-05-06 19:53 53.52740 -1.89208 10335 ft 295 kts 79°
2026-05-06 19:53 53.52599 -1.85675 10610 ft 318 kts 107°
2026-05-06 19:54 53.51816 -1.82069 10815 ft 340 kts 110°
2026-05-06 19:54 53.50971 -1.78287 11035 ft 359 kts 109°
2026-05-06 19:54 53.50141 -1.74250 11731 ft 362 kts 108°
2026-05-06 19:54 53.49373 -1.70195 12438 ft 366 kts 107°
2026-05-06 19:55 53.48645 -1.66122 13128 ft 371 kts 106°
2026-05-06 19:55 53.47910 -1.61938 13826 ft 376 kts 106°
2026-05-06 19:55 53.47167 -1.57707 14535 ft 379 kts 106°
2026-05-06 19:55 53.46410 -1.53464 15263 ft 382 kts 107°
2026-05-06 19:56 53.45637 -1.49175 15958 ft 386 kts 107°
2026-05-06 19:56 53.44855 -1.44851 16642 ft 390 kts 107°
2026-05-06 19:56 53.44063 -1.40477 17322 ft 394 kts 107°
2026-05-06 19:56 53.43264 -1.36059 17994 ft 398 kts 107°
2026-05-06 19:57 53.42454 -1.31598 18620 ft 402 kts 107°
2026-05-06 19:57 53.41636 -1.27096 19206 ft 405 kts 107°
2026-05-06 19:57 53.40833 -1.22548 19796 ft 409 kts 106°
2026-05-06 19:57 53.40025 -1.17957 20369 ft 412 kts 107°
2026-05-06 19:58 53.39186 -1.13345 20932 ft 416 kts 107°
2026-05-06 19:58 53.38329 -1.08696 21497 ft 419 kts 107°
2026-05-06 19:58 53.37462 -1.04015 22047 ft 423 kts 107°
2026-05-06 19:58 53.36588 -0.99297 22573 ft 426 kts 107°
2026-05-06 19:59 53.35704 -0.94526 23084 ft 430 kts 107°
2026-05-06 19:59 53.34815 -0.89729 23595 ft 434 kts 107°
2026-05-06 19:59 53.33917 -0.84887 24029 ft 437 kts 107°
2026-05-06 19:59 53.33011 -0.80019 24487 ft 439 kts 107°
2026-05-06 20:00 53.32106 -0.75140 24920 ft 441 kts 105°
2026-05-06 20:00 53.31600 -0.70077 25302 ft 444 kts 90°
2026-05-06 20:00 53.31891 -0.64954 25736 ft 443 kts 76°
2026-05-06 20:00 53.32891 -0.60110 26174 ft 442 kts 63°
2026-05-06 20:01 53.34239 -0.55482 26607 ft 443 kts 62°
2026-05-06 20:01 53.35610 -0.50846 26990 ft 446 kts 62°
2026-05-06 20:01 53.36970 -0.46153 27367 ft 449 kts 63°
2026-05-06 20:01 53.38309 -0.41414 27750 ft 451 kts 63°
2026-05-06 20:02 53.39619 -0.36706 28143 ft 453 kts 63°
2026-05-06 20:02 53.40969 -0.31851 28531 ft 455 kts 63°
2026-05-06 20:02 53.42302 -0.27111 28878 ft 457 kts 63°
2026-05-06 20:02 53.43663 -0.22292 29236 ft 459 kts 63°
2026-05-06 20:03 53.45033 -0.17438 29587 ft 461 kts 63°
2026-05-06 20:03 53.46404 -0.12561 29927 ft 463 kts 63°
2026-05-06 20:03 53.47774 -0.07671 30255 ft 464 kts 63°
2026-05-06 20:03 53.49141 -0.02779 30622 ft 463 kts 63°
2026-05-06 20:04 53.50508 0.02124 30957 ft 463 kts 63°
2026-05-06 20:04 53.51909 0.07003 31193 ft 465 kts 59°
2026-05-06 20:04 53.53640 0.11572 31495 ft 463 kts 50°
2026-05-06 20:04 53.55747 0.15634 31902 ft 459 kts 45°
2026-05-06 20:05 53.57912 0.19568 32283 ft 458 kts 45°
2026-05-06 20:05 53.60078 0.23502 32592 ft 458 kts 45°
2026-05-06 20:05 53.62238 0.27459 32889 ft 459 kts 45°
2026-05-06 20:05 53.64389 0.31437 33230 ft 459 kts 46°
2026-05-06 20:06 53.66535 0.35435 33593 ft 458 kts 46°
2026-05-06 20:06 53.68659 0.39414 33920 ft 458 kts 46°
2026-05-06 20:06 53.70787 0.43411 34189 ft 458 kts 46°
2026-05-06 20:06 53.72919 0.47423 34426 ft 458 kts 46°
2026-05-06 20:07 53.75047 0.51436 34691 ft 458 kts 46°
2026-05-06 20:07 53.77174 0.55450 34912 ft 460 kts 46°
2026-05-06 20:07 53.81467 0.63569 35225 ft 464 kts 46°
2026-05-06 20:08 53.83610 0.67633 35536 ft 462 kts 46°
2026-05-06 20:08 53.85749 0.71695 35794 ft 462 kts 46°
2026-05-06 20:08 53.87891 0.75769 35981 ft 463 kts 46°
2026-05-06 20:08 53.90034 0.79850 36181 ft 464 kts 46°
2026-05-06 20:09 53.92172 0.83959 36416 ft 464 kts 48°
2026-05-06 20:09 53.94155 0.88289 36647 ft 465 kts 52°
2026-05-06 20:09 53.96035 0.92770 36853 ft 466 kts 53°
2026-05-06 20:09 53.97851 0.97255 37038 ft 467 kts 54°
2026-05-06 20:10 54.01541 1.06431 37067 ft 472 kts 54°
2026-05-06 20:10 54.05264 1.15587 37057 ft 469 kts 53°
2026-05-06 20:11 54.08989 1.24680 37060 ft 467 kts 53°
2026-05-06 20:11 54.12069 1.32198 37061 ft 465 kts 53°
2026-05-06 20:12 54.15761 1.41242 37063 ft 464 kts 53°
2026-05-06 20:12 54.19436 1.50280 37063 ft 463 kts 53°
2026-05-06 20:13 54.23107 1.59344 37064 ft 464 kts 54°
2026-05-06 20:13 54.26780 1.68442 37077 ft 466 kts 54°
2026-05-06 20:14 54.30462 1.77600 37072 ft 468 kts 54°
2026-05-06 20:14 54.34152 1.86816 37070 ft 470 kts 54°
2026-05-06 20:15 54.37857 1.96102 37064 ft 472 kts 54°
2026-05-06 20:15 54.41567 2.05434 37064 ft 474 kts 54°
2026-05-06 20:16 54.45282 2.14814 37053 ft 475 kts 54°
2026-05-06 20:16 54.48991 2.24224 37076 ft 475 kts 54°
2026-05-06 20:17 54.52703 2.33651 37063 ft 476 kts 54°
2026-05-06 20:17 54.56399 2.43089 37061 ft 475 kts 54°
2026-05-06 20:18 54.60087 2.52549 37060 ft 475 kts 54°
2026-05-06 20:18 54.63760 2.62001 37071 ft 474 kts 54°
2026-05-06 20:19 54.67424 2.71465 37050 ft 473 kts 55°
2026-05-06 20:19 54.71071 2.80922 37065 ft 473 kts 55°
2026-05-06 20:20 54.74713 2.90399 37062 ft 473 kts 55°
2026-05-06 20:20 54.78317 2.99817 37067 ft 473 kts 55°
2026-05-06 20:21 54.81945 3.09332 37061 ft 473 kts 55°
2026-05-06 20:21 54.85572 3.18882 37065 ft 473 kts 55°
2026-05-06 20:22 54.89192 3.28449 37051 ft 474 kts 55°
2026-05-06 20:22 54.92806 3.38039 37067 ft 475 kts 56°
2026-05-06 20:23 54.96418 3.47660 37083 ft 476 kts 56°
2026-05-06 20:23 55.00034 3.57330 37068 ft 477 kts 56°
2026-05-06 20:24 55.03648 3.67033 37061 ft 478 kts 56°
2026-05-06 20:24 55.07260 3.76768 37058 ft 478 kts 56°
2026-05-06 20:25 55.10873 3.86544 37044 ft 479 kts 56°
2026-05-06 20:25 55.14376 3.96443 37032 ft 480 kts 63°
2026-05-06 20:26 55.16984 4.07109 37043 ft 481 kts 68°
2026-05-06 20:26 55.19469 4.17971 37060 ft 481 kts 67°
2026-05-06 20:27 55.21999 4.28821 37046 ft 482 kts 67°
2026-05-06 20:27 55.24559 4.39664 37040 ft 482 kts 67°
2026-05-06 20:28 55.27119 4.50521 37034 ft 482 kts 67°
2026-05-06 20:28 55.29669 4.61403 37042 ft 482 kts 67°
2026-05-06 20:29 55.32206 4.72296 37042 ft 482 kts 67°
2026-05-06 20:29 55.34735 4.83208 37040 ft 483 kts 68°
2026-05-06 20:30 55.38488 4.99637 37047 ft 483 kts 70°
2026-05-06 20:31 55.40067 5.11096 37048 ft 482 kts 79°
2026-05-06 20:31 55.41307 5.22699 37064 ft 482 kts 79°
2026-05-06 20:32 55.42551 5.34244 37050 ft 483 kts 79°
2026-05-06 20:32 55.43840 5.45849 37042 ft 483 kts 79°
2026-05-06 20:33 55.45141 5.57455 37027 ft 483 kts 79°
2026-05-06 20:33 55.46434 5.69072 37039 ft 483 kts 79°
2026-05-06 20:34 55.47714 5.80704 37041 ft 483 kts 79°
2026-05-06 20:34 55.48982 5.92339 37037 ft 483 kts 79°
2026-05-06 20:35 55.50239 6.03992 37033 ft 484 kts 79°
2026-05-06 20:35 55.51485 6.15652 37023 ft 484 kts 80°
2026-05-06 20:36 55.52714 6.27270 37027 ft 484 kts 80°
2026-05-06 20:36 55.53939 6.38950 37030 ft 484 kts 80°
2026-05-06 20:37 55.55155 6.50662 37027 ft 485 kts 80°
2026-05-06 20:37 55.56359 6.62373 37024 ft 485 kts 81°
2026-05-06 20:38 55.57553 6.74103 37006 ft 485 kts 81°
2026-05-06 20:38 55.58736 6.85850 37020 ft 485 kts 81°
2026-05-06 20:39 55.59909 6.97606 37022 ft 486 kts 81°
2026-05-06 20:39 55.61072 7.09384 37021 ft 486 kts 81°
2026-05-06 20:40 55.62224 7.21175 37016 ft 487 kts 81°
2026-05-06 20:40 55.63366 7.32985 37004 ft 487 kts 81°
2026-05-06 20:41 55.64497 7.44801 37011 ft 487 kts 81°
2026-05-06 20:41 55.65616 7.56620 37012 ft 487 kts 82°
2026-05-06 20:42 55.66724 7.68453 37009 ft 487 kts 82°
2026-05-06 20:42 55.67821 7.80293 37008 ft 487 kts 82°
2026-05-06 20:43 55.68906 7.92134 37000 ft 487 kts 82°
2026-05-06 20:43 55.69979 8.03973 37005 ft 486 kts 82°
2026-05-06 20:44 55.71040 8.15811 37000 ft 486 kts 82°
2026-05-06 20:44 55.72089 8.27658 36999 ft 486 kts 82°
2026-05-06 20:45 55.73120 8.39431 36996 ft 486 kts 82°
2026-05-06 20:45 55.74146 8.51273 36995 ft 485 kts 83°
2026-05-06 20:46 55.75159 8.63109 36992 ft 485 kts 83°
2026-05-06 20:46 55.76160 8.74951 36995 ft 485 kts 83°
2026-05-06 20:47 55.77149 8.86789 36994 ft 484 kts 83°
2026-05-06 20:47 55.78129 8.98657 36559 ft 490 kts 83°
2026-05-06 20:47 55.78618 9.04638 36029 ft 487 kts 83°
2026-05-06 20:48 55.79103 9.10593 35417 ft 487 kts 83°
2026-05-06 20:48 55.79584 9.16547 34793 ft 487 kts 83°
2026-05-06 20:48 55.80063 9.22513 34148 ft 488 kts 83°
2026-05-06 20:48 55.80540 9.28498 33363 ft 490 kts 83°
2026-05-06 20:49 55.81016 9.34498 32623 ft 490 kts 83°
2026-05-06 20:49 55.81487 9.40469 32096 ft 485 kts 83°
2026-05-06 20:49 55.81951 9.46391 31592 ft 481 kts 84°
2026-05-06 20:49 55.82409 9.52260 31096 ft 477 kts 84°
2026-05-06 20:50 55.82859 9.58078 30606 ft 472 kts 84°
2026-05-06 20:50 55.83302 9.63846 30124 ft 469 kts 84°
2026-05-06 20:50 55.83739 9.69574 29585 ft 465 kts 84°
2026-05-06 20:50 55.84168 9.75234 29083 ft 459 kts 84°
2026-05-06 20:51 55.84585 9.80767 28598 ft 454 kts 84°
2026-05-06 20:51 55.85001 9.86319 28111 ft 450 kts 84°
2026-05-06 20:51 55.85410 9.91814 27619 ft 446 kts 84°
2026-05-06 20:51 55.85813 9.97263 27125 ft 442 kts 85°
2026-05-06 20:52 55.86210 10.02660 26659 ft 438 kts 85°
2026-05-06 20:52 55.86601 10.08016 26194 ft 435 kts 85°
2026-05-06 20:52 55.86987 10.13338 25725 ft 432 kts 85°
2026-05-06 20:52 55.87369 10.18621 25258 ft 429 kts 85°
2026-05-06 20:53 55.87745 10.23861 24806 ft 426 kts 85°
2026-05-06 20:53 55.88116 10.29075 24354 ft 423 kts 85°
2026-05-06 20:53 55.88484 10.34259 23888 ft 421 kts 85°
2026-05-06 20:53 55.88848 10.39423 23401 ft 419 kts 85°
2026-05-06 20:54 55.89208 10.44559 22883 ft 417 kts 85°
2026-05-06 20:54 55.89564 10.49664 22400 ft 413 kts 85°
2026-05-06 20:54 55.89697 10.54728 21939 ft 405 kts 101°
2026-05-06 20:54 55.89121 10.59561 21613 ft 395 kts 106°
2026-05-06 20:55 55.88497 10.64326 21145 ft 393 kts 105°
2026-05-06 20:55 55.87896 10.69063 20703 ft 391 kts 105°
2026-05-06 20:55 55.87314 10.73767 20275 ft 388 kts 104°
2026-05-06 20:55 55.86742 10.78452 19842 ft 386 kts 104°
2026-05-06 20:56 55.86178 10.83099 19411 ft 383 kts 104°
2026-05-06 20:56 55.85615 10.87723 18982 ft 381 kts 104°
2026-05-06 20:56 55.85051 10.92324 18559 ft 379 kts 104°
2026-05-06 20:56 55.84457 10.96882 18152 ft 376 kts 105°
2026-05-06 20:57 55.83801 11.01366 17703 ft 373 kts 106°
2026-05-06 20:57 55.83356 11.04309 17412 ft 371 kts 107°
2026-05-06 20:57 55.82685 11.08725 16978 ft 368 kts 106°
2026-05-06 20:57 55.82024 11.13102 16569 ft 365 kts 106°
2026-05-06 20:58 55.81372 11.17452 16148 ft 363 kts 106°
2026-05-06 20:58 55.80727 11.21770 15739 ft 360 kts 106°
2026-05-06 20:58 55.80088 11.26047 15329 ft 357 kts 105°
2026-05-06 20:58 55.79454 11.30295 15072 ft 350 kts 105°
2026-05-06 20:59 55.78840 11.34407 14939 ft 340 kts 105°
2026-05-06 20:59 55.78240 11.38408 14801 ft 331 kts 106°
2026-05-06 20:59 55.77653 11.42303 14664 ft 322 kts 106°
2026-05-06 20:59 55.77171 11.46142 14451 ft 316 kts 98°
2026-05-06 21:00 55.76935 11.49995 14207 ft 313 kts 95°
2026-05-06 21:00 55.76760 11.53828 13918 ft 311 kts 95°
2026-05-06 21:00 55.76587 11.57652 13592 ft 309 kts 95°
2026-05-06 21:00 55.76402 11.61443 13260 ft 308 kts 95°
2026-05-06 21:01 55.76205 11.65220 12941 ft 306 kts 96°
2026-05-06 21:01 55.76000 11.68968 12630 ft 304 kts 96°
2026-05-06 21:01 55.75791 11.72693 12322 ft 302 kts 96°
2026-05-06 21:01 55.75581 11.76393 12012 ft 300 kts 96°
2026-05-06 21:02 55.75371 11.80021 11712 ft 299 kts 96°
2026-05-06 21:02 55.75159 11.83659 11412 ft 297 kts 96°
2026-05-06 21:02 55.74946 11.87306 11121 ft 295 kts 96°
2026-05-06 21:02 55.74732 11.90923 10833 ft 294 kts 96°
2026-05-06 21:03 55.74520 11.94518 10543 ft 292 kts 96°
2026-05-06 21:03 55.74309 11.98095 10247 ft 291 kts 96°
2026-05-06 21:03 55.74099 12.01627 10108 ft 284 kts 96°
2026-05-06 21:03 55.73893 12.05063 9949 ft 278 kts 95°
2026-05-06 21:04 55.73688 12.08467 9656 ft 277 kts 96°
2026-05-06 21:04 55.73483 12.11851 9373 ft 275 kts 95°
2026-05-06 21:04 55.73278 12.15216 9090 ft 273 kts 95°
2026-05-06 21:04 55.73076 12.18552 8830 ft 271 kts 95°
2026-05-06 21:05 55.72874 12.21856 8573 ft 269 kts 95°
2026-05-06 21:05 55.72670 12.25145 8310 ft 267 kts 95°
2026-05-06 21:05 55.72467 12.28417 8042 ft 266 kts 95°
2026-05-06 21:05 55.72266 12.31667 7785 ft 264 kts 95°
2026-05-06 21:06 55.72065 12.34884 7535 ft 262 kts 94°
2026-05-06 21:06 55.71867 12.38081 7272 ft 260 kts 94°
2026-05-06 21:06 55.71668 12.41255 7033 ft 258 kts 94°
2026-05-06 21:06 55.71469 12.44406 6791 ft 256 kts 95°
2026-05-06 21:07 55.71269 12.47502 6535 ft 255 kts 95°
2026-05-06 21:07 55.71149 12.50629 6256 ft 253 kts 82°
2026-05-06 21:07 55.71720 12.53513 6015 ft 247 kts 61°
2026-05-06 21:07 55.72509 12.56208 5752 ft 246 kts 62°
2026-05-06 21:08 55.73284 12.58903 5495 ft 244 kts 62°
2026-05-06 21:08 55.74053 12.61584 5235 ft 243 kts 62°
2026-05-06 21:08 55.74853 12.64218 5056 ft 243 kts 53°
2026-05-06 21:08 55.76045 12.66307 5019 ft 237 kts 40°
2026-05-06 21:09 55.77258 12.68126 5001 ft 220 kts 40°
2026-05-06 21:09 55.78406 12.69881 4677 ft 217 kts 41°
2026-05-06 21:09 55.79523 12.71602 4491 ft 208 kts 41°
2026-05-06 21:09 55.80588 12.73252 4351 ft 198 kts 41°
2026-05-06 21:10 55.81608 12.74840 4238 ft 194 kts 42°
2026-05-06 21:10 55.82612 12.76404 4130 ft 191 kts 43°
2026-05-06 21:10 55.83609 12.77969 4036 ft 192 kts 43°
2026-05-06 21:10 55.84577 12.79611 3899 ft 193 kts 56°
2026-05-06 21:11 55.84906 12.81839 3774 ft 187 kts 98°
2026-05-06 21:11 55.84377 12.83908 3641 ft 186 kts 132°
2026-05-06 21:11 55.83284 12.85081 3510 ft 187 kts 165°
2026-05-06 21:11 55.81993 12.85308 3395 ft 187 kts 173°
2026-05-06 21:12 55.80703 12.85476 3258 ft 183 kts 173°
2026-05-06 21:12 55.79458 12.85631 3095 ft 175 kts 174°
2026-05-06 21:12 55.78255 12.85778 2978 ft 174 kts 174°
2026-05-06 21:12 55.77052 12.85925 2855 ft 172 kts 174°
2026-05-06 21:13 55.75868 12.86067 2735 ft 170 kts 176°
2026-05-06 21:13 55.74738 12.85537 2589 ft 174 kts 217°
2026-05-06 21:13 55.73851 12.84076 2511 ft 176 kts 216°
2026-05-06 21:13 55.72889 12.82714 2381 ft 176 kts 217°
2026-05-06 21:14 55.71954 12.81326 2243 ft 174 kts 218°
2026-05-06 21:14 55.71045 12.79931 2127 ft 175 kts 218°
2026-05-06 21:14 55.70122 12.78504 2027 ft 175 kts 219°
2026-05-06 21:14 55.69221 12.77108 1840 ft 170 kts 219°
2026-05-06 21:15 55.68342 12.75746 1614 ft 166 kts 218°
2026-05-06 21:15 55.67485 12.74418 1394 ft 165 kts 218°
2026-05-06 21:15 55.66613 12.73069 1160 ft 163 kts 219°
2026-05-06 21:15 55.65788 12.71790 931 ft 154 kts 219°
2026-05-06 21:16 55.64997 12.70565 726 ft 150 kts 219°
2026-05-06 21:16 55.64228 12.69374 500 ft 147 kts 219°
2026-05-06 21:16 55.63477 12.68210 329 ft 138 kts 219°
2026-05-06 21:16 55.62819 12.67158 174 ft 119 kts 220°
2026-05-06 21:17 55.62215 12.66225 27 ft 109 kts 218°
2026-05-06 21:17 55.61721 12.65482 22 ft 51 kts 222°
2026-05-06 21:17 55.61606 12.65147 22 ft 24 kts 271°
2026-05-06 21:17 55.61652 12.64947 23 ft 17 kts 309°
2026-05-06 21:18 55.61735 12.64810 23 ft 16 kts 334°
2026-05-06 21:18 55.61843 12.64782 23 ft 16 kts
2026-05-06 21:18 55.61939 12.64840 23 ft 15 kts 41°
2026-05-06 21:18 55.62018 12.64954 24 ft 14 kts 36°
2026-05-06 21:19 55.62098 12.65051 25 ft 14 kts 33°
2026-05-06 21:19 55.62178 12.65142 25 ft 15 kts 33°
2026-05-06 21:19 55.62276 12.65196 23 ft 15 kts
2026-05-06 21:19 55.62378 12.65202 23 ft 15 kts 359°
2026-05-06 21:20 55.62438 12.65270 25 ft 13 kts 77°
2026-05-06 21:20 55.62442 12.65466 23 ft 13 kts 89°
2026-05-06 21:20 55.62481 12.65545 23 ft 3 kts 28°
2026-05-06 21:20 55.62506 12.65564 23 ft 4 kts 23°
2026-05-06 21:21 55.62519 12.65574 23 ft 0 kts 24°